This is the latest recevied weather packets stored in our database for station/object KM4CBK. If no packets are shown the sender has not sent any weather packets the latest 10 day(s).
| Time | Temp. | Humidity | Pressure | Rain* | Wind** | Luminosity | Snow |
|---|---|---|---|---|---|---|---|
| 1778124208 | 20° C | 99% | 1012.5 hPa | 0 mm | - | 0 W/m² | - |
| 1778123905 | 20° C | 99% | 1012.2 hPa | 1.27 mm | - | 0 W/m² | - |
| 1778123602 | 20° C | 99% | 1011.1 hPa | 1.27 mm | - | 0 W/m² | - |
| 1778123298 | 20° C | 99% | 1010.7 hPa | 0 mm | - | 0 W/m² | - |
| 1778122996 | 20° C | 99% | 1011.3 hPa | 2.29 mm | - | 0 W/m² | - |
| 1778122692 | 20° C | 99% | 1012 hPa | 2.29 mm | - | 0 W/m² | - |
| 1778122390 | 20° C | 99% | 1010.6 hPa | 3.56 mm | - | 0 W/m² | - |
| 1778122088 | 20° C | 99% | 1010.5 hPa | 1.27 mm | - | 0 W/m² | - |
| 1778121785 | 20° C | 99% | 1010.6 hPa | 0.51 mm | - | 0 W/m² | - |
| 1778121481 | 20° C | 99% | 1010.9 hPa | 3.56 mm | - | 0 W/m² | - |
| 1778121177 | 20° C | 99% | 1010.1 hPa | 3.56 mm | - | 0 W/m² | - |
| 1778120875 | 20° C | 99% | 1010.8 hPa | 0.51 mm | - | 0 W/m² | - |
| 1778120571 | 20° C | 99% | 1010.7 hPa | 0.51 mm | - | 0 W/m² | - |
| 1778120267 | 20° C | 99% | 1010.9 hPa | 0.51 mm | - | 0 W/m² | - |
| 1778119963 | 20° C | 99% | 1010.8 hPa | 0 mm | - | 0 W/m² | - |
| 1778119661 | 20° C | 99% | 1010.8 hPa | 0 mm | - | 0 W/m² | - |
| 1778119357 | 20° C | 99% | 1010.5 hPa | 0 mm | - | 0 W/m² | - |
| 1778119055 | 20° C | 99% | 1011 hPa | 0 mm | - | 0 W/m² | - |
| 1778118752 | 20.56° C | 99% | 1010.4 hPa | 0 mm | - | 0 W/m² | - |
| 1778118448 | 20° C | 99% | 1010.8 hPa | 0 mm | - | 0 W/m² | - |
| 1778118145 | 20.56° C | 99% | 1010.9 hPa | 0 mm | - | 0 W/m² | - |
| 1778117842 | 20.56° C | 99% | 1010.6 hPa | 0.51 mm | - | 0 W/m² | - |
| 1778117539 | 20° C | 99% | 1010.5 hPa | 0.51 mm | - | 0 W/m² | - |
| 1778117236 | 20.56° C | 99% | 1010.7 hPa | 0.51 mm | - | 0 W/m² | - |
| 1778116932 | 20.56° C | 99% | 1010.6 hPa | 1.27 mm | - | 0 W/m² | - |
* Rain latest hour (hover to see other rain measurements)
** Current wind speed in m/s (hover to see current wind gust speed)